Preview of NWS' New Version of Forecast
This preview is not operational and should not be used for support decisions.

Regional Weather Roundup (RWR)

Issued by Kansas City/Pleasant Hill, MO (EAX)

                            
000
ASUS43 KEAX 200710
RWREAX

WEATHER ROUNDUP FOR EASTERN KANSAS AND NORTHWEST MISSOURI
NATIONAL WEATHER SERVICE KANSAS CITY/PLEASANT HILL MO
200 AM CDT MON MAY 20 2019

KSZ040-057-103>105-MOZ028-029-037-043-200800-
...KANSAS CITY METROPOLITAN AREA...
  
CITY           SKY/WX    TMP DP  RH WIND       PRES   REMARKS
K.C. INTL      CLOUDY    50  42  74 N7        30.05R                  
K.C. DOWNTOWN  CLOUDY    54  42  64 N6        30.05R                  
LEES SUMMIT    MOCLDY    52  42  69 N9        30.05R                  
OLATHE - IXD   CLOUDY    50  43  77 N8        30.05R                  
OLATHE - OJC   PTCLDY    53  43  68 N8        30.04R                  
LAWRENCE       CLOUDY    53  41  63 N8        30.05R                  

$$
 
MOZ001>008-011>017-020>025-030>033-038>040-044>046-053-054-200800-
...NORTHERN AND CENTRAL MISSOURI...
  
CITY           SKY/WX    TMP DP  RH WIND       PRES   REMARKS
ST. JOSEPH     PTCLDY    50  44  80 N8        30.05S                  
MOSBY          PTSUNNY   52  41  66 CALM      30.05R                  
WARRENSBURG    PTCLDY    52  45  76 N5        30.05R                  
WHITEMAN AFB   PTCLDY    54  48  80 N9        30.00R                  
CLINTON        PTCLDY    50  48  93 CALM      30.03S                  
SEDALIA        PTCLDY    51  48  89 NW8       30.05R                  
WARSAW         NOT AVBL                                               
CHILLICOTHE      N/A     52  43  71 NW6       30.05R                  
KIRKSVILLE     CLOUDY    48  45  89 W6        30.02R                  

$$

MOZ041-047>049-056>058-063>065-088>090-097-200800-
...EASTERN AND SOUTHERN MISSOURI...
  
CITY           SKY/WX    TMP DP  RH WIND       PRES   REMARKS
ST. LOUIS INTL PTCLDY    59  49  69 W3        29.99R                  
SPIRIT OF STL  CLEAR     55  52  89 CALM      29.98R                  
COLUMBIA       CLEAR     56  48  74 NW9       30.02R                  
JEFFERSON CITY CLEAR     54  50  86 CALM      30.01R                  
ROLLA          CLEAR     53  48  83 W5        30.02R                  
OSAGE BEACH    CLEAR     50  49  96 CALM      30.03R                  
SPRINGFIELD    CLEAR     54  50  86 CALM      30.01S                  
BRANSON        CLEAR     55  54  94 CALM      30.02F                  
JOPLIN         CLEAR     52  51  97 NE3       30.03R                  
WEST PLAINS    CLEAR     54  51  90 NW3       30.02S                  

$$

IAZ060-094-KSZ022-034>040-054-083-096-NEZ052-066-093-200800- 
...KANSAS...SOUTHEAST NEBRASKA AND IOWA...
  
CITY           SKY/WX    TMP DP  RH WIND       PRES   REMARKS
TOPEKA         MOCLDY    52  42  69 NE5       30.05R                  
MANHATTAN      MOCLDY    52  41  66 NE10      30.04S                  
EMPORIA        CLOUDY    53  48  83 N10G20    30.03R                  
CHANUTE        CLOUDY    53  49  86 NE3       30.03R                  
WICHITA        CLOUDY    57  47  69 E7        30.00R                  
OMAHA          CLOUDY    49  42  77 N14       30.08S                  
LINCOLN        MOCLDY    47  41  80 N13       30.08F                  
FALLS CITY     CLOUDY    47  42  83 NW6       30.04F                  
LAMONI         CLOUDY    49  44  83 NW10      30.02R                  
DES MOINES     CLOUDY    44  39  82 N8        30.04R                  

$$